Regional Weather Roundup
Issued by NWS

Home | Current Version | Previous Version | Text Only | Print | Product List | Glossary Off
Versions: 1 2 3 4 5 6 7 8 9 10 11 12 13 14 15 16 17 18 19 20 21 22 23 24 25 26 27 28 29 30 31 32 33 34 35 36 37 38 39 40 41 42 43 44 45 46 47 48 49 50

000
ASUS43 KMPX 232001
RWRMN
WEATHER ROUNDUP FOR MINNESOTA
NATIONAL WEATHER SERVICE TWIN CITIES/CHANHASSEN MN
300 PM CDT FRI JUN 23 2017


NOTE: "FAIR" INDICATES FEW OR NO CLOUDS BELOW 12,000 FEET WITH NO
SIGNIFICANT WEATHER AND/OR OBSTRUCTIONS TO VISIBILITY. N/A MEANS
CURRENT SKY AND/OR WEATHER CONDITIONS ARE NOT AVAILABLE.

MNZ060>063-068>070-232100-
   Twin Cities Metro

CITY           SKY/WX    TMP DP  RH WIND       PRES   REMARKS
TWIN CITIES    CLOUDY    73  51  46 NW20      29.80S
ST PAUL        CLOUDY    71  51  49 NW17G23   29.80S
CRYSTAL        PTSUNNY   73  49  42 NW16G29   29.79S
BLAINE         PTSUNNY   73  50  43 NW15G23   29.79F
LAKEVILLE      CLOUDY    66  55  68 W12G17    29.82R
EDEN PRAIRIE   CLOUDY    73  53  49 NW17G25   29.81R
SOUTH ST PAUL  PTSUNNY   72  48  43 NW17G28   29.80S
LAKE ELMO      FAIR      72  52  49 NW13G18   29.81S
$$
MNZ001>005-007-008-013>017-022>024-027-028-232100-
   Northwest Minnesota

CITY           SKY/WX    TMP DP  RH WIND       PRES   REMARKS
BEMIDJI        PTSUNNY   62  52  68 NW20G26   29.83R
HALLOCK        CLOUDY    57  48  72 NW14G20   29.88R
ROSEAU           N/A     57  52  82 NW16G24   29.84R
WARROAD        CLOUDY    57  54  88 W15G22    29.82R
CROOKSTON      CLOUDY    61  50  67 NW13      29.89
FOSSTON        CLOUDY    57  48  72 NW17G25   29.89R
DETROIT LAKES  PTSUNNY   61  50  67 NW18      29.90S
MOORHEAD       PTSUNNY   63  46  55 NW18      29.91S
PARK RAPIDS    PTSUNNY   64  52  64 W21G28    29.84R
MAHNOMEN       CLOUDY    60  50  69 NW16      29.88S
$$
MNZ006-009>011-018-025>026-232100-
   North Central Minnesota

CITY           SKY/WX    TMP DP  RH WIND       PRES   REMARKS
BAUDETTE       HVY RAIN  58  55  90 NW12G28   29.78R FOG
FLAG ISLAND    CLOUDY    59  54  82 NW18      29.78R
INTL FALLS     PTSUNNY   67  48  50 W14G23    29.71F
WASKISH        CLOUDY    59  55  88 W16G23    29.81R
BIG FORK       MOSUNNY   66  52  59 NW8G21    29.76R
LONGVILLE      CLOUDY    61  55  82 NW7       29.81R
GRAND RAPIDS   PTSUNNY   65  54  67 NW17G26   29.78S
CRANE LAKE     MOSUNNY   66  46  48 NW10G16   29.71S
ORR            SUNNY     66  48  52 NW12G18   29.70S
COOK           LGT RAIN  61  52  72 W9        29.73R
WALKER         CLOUDY    62  51  69 NW13G20   29.81S
$$
MNZ012-019>021-037-232100-
   Northeast Minnesota

CITY           SKY/WX    TMP DP  RH WIND       PRES   REMARKS
DULUTH         MOSUNNY   69  49  48 W17G24    29.71S
ELY            LGT RAIN  61  54  77 NW5       29.70R
HIBBING        LGT RAIN  59  50  72 NW21G32   29.74R
EVELETH        MOSUNNY   66  38  35 W17G25    29.73S
DULUTH HARBOR  PTSUNNY   72  52  49 W20       29.71R
TWO HARBORS    MOSUNNY   70  54  56 W6        29.68R
SILVER BAY     SUNNY     70  48  46 NW6G17    29.66S
GRAND MARAIS     N/A     73  51  46 NW12G24   29.61S
G MARAIS ARPRT MOSUNNY   64  46  52 W12G22    29.66R
$$
MNZ029>031-032-039>041-046>048-054>057-064-232100-
   West Central Minnesota

CITY           SKY/WX    TMP DP  RH WIND       PRES   REMARKS
FERGUS FALLS   PTSUNNY   63  50  63 NW23G30   29.89S
WHEATON        PTSUNNY   64  46  52 NW15G23   29.95S
MORRIS         PTSUNNY   64  50  59 NW18G28   29.91S
ALEXANDRIA     PTSUNNY   63  52  67 NW26      29.90S
ELBOW LAKE     CLOUDY    61  51  69 W18G24    29.92S
WADENA         PTSUNNY   63  52  67 W13G18    29.86F
GLENWOOD       MOSUNNY   64  54  68 NW18G26   29.90S
APPLETON       PTSUNNY   66  48  52 NW20G28   29.92S
BENSON         CLOUDY    66  48  52 N21G30    29.92S
ORTONVILLE     CLOUDY    64  48  55 NW16G25   29.94S
MADISON        CLOUDY    66  52  59 NW20G28   29.94S
WILLMAR        FAIR      66  54  63 NW24G30   29.90S
$$
MNZ033>034-036-042>043-049>051-058-059-232100-
   Central Minnesota

CITY           SKY/WX    TMP DP  RH WIND       PRES   REMARKS
ST CLOUD       PTSUNNY   70  54  56 NW18G28   29.82S
SAUK CENTRE    CLOUDY    65  53  64 W16G25    29.88R
PAYNESVILLE    PTSUNNY   66  51  59 W20G31    29.88R
PINE RIVER     PTSUNNY   61  54  77 W8        29.85R
BRAINERD       CLOUDY    63  55  75 W15G25    29.82S
STAPLES        RAIN      59  52  77 NW12G21   29.85R
LONG PRAIRIE   LGT RAIN  59  54  82 W15G29    29.88R
LITTLE FALLS   PTSUNNY   68  50  52 W21G29    29.84S
LITCHFIELD     MOSUNNY   70  55  60 NW18G26   29.86F
BUFFALO        PTSUNNY   68  51  55 W15G23    29.84S
MAPLE LAKE     PTSUNNY   67  56  66 W14G21    29.85R
HUTCHINSON     PTSUNNY   67  56  66 W18G31    29.87F
$$
MNZ037-044-045-052-053-232100-
   East Central Minnesota

CITY           SKY/WX    TMP DP  RH WIND       PRES   REMARKS
PRINCETON      MOSUNNY   72  52  49 W17G28    29.82R
MORA           MOSUNNY   64  55  72 NW6       29.82R
CAMBRIDGE      PTSUNNY   70  54  56 W21G28    29.80R
RUSH CITY      LGT RAIN  66  54  63 NW7G21    29.80S
MOOSE LAKE     MOSUNNY   68  52  56 NW9G16    29.75S
HINCKLEY       CLOUDY    68  52  56 W9G18     29.78S
CLOQUET        CLOUDY    66  46  48 W14       29.74R
MCGREGOR       CLOUDY    61  55  82 N14       29.78R
$$
MNZ071>073-080-081-089-090-097-098-232100-
   Southwest Minnesota

CITY           SKY/WX    TMP DP  RH WIND       PRES   REMARKS
MONTEVIDEO     CLOUDY    66  52  59 N17G28    29.92S
GRANITE FALLS  PTSUNNY   69  53  57 NW25G32   29.93S
CANBY          CLOUDY    65  51  59 W14G29    29.95F
MARSHALL       PTSUNNY   67  51  56 NW24G32   29.92S
REDWOOD FALLS  PTSUNNY   69  52  54 NW18G31   29.89S
OLIVIA         PTSUNNY   66  54  63 NW18G30   29.88S
PIPESTONE      PTSUNNY   64  48  55 NW21G32   29.97S
WINDOM         MOSUNNY   66  52  59 NW18G26   29.92S
WORTHINGTON    CLOUDY    64  51  62 NW22G29   29.96S
JACKSON        CLOUDY    64  52  63 NW15G24   29.93S
TRACY          PTSUNNY   67  53  60 NW20G29   29.94S
SLAYTON        CLOUDY    63  50  63 NW16G24   29.96R
$$
MNZ065>067-074>077-082>085-091>093-232100-
   South Central Minnesota

CITY           SKY/WX    TMP DP  RH WIND       PRES   REMARKS
MANKATO        CLOUDY    64  56  75 NW16G22   29.88R
NEW ULM        CLOUDY    68  54  60 NW20G28   29.88S
ST JAMES       CLOUDY    70  54  56 W16G26    29.90S
FAIRMONT       CLOUDY    67  54  63 NW18G26   29.90S
GLENCOE        PTSUNNY   67  59  75 W21G30    29.85S
FARIBAULT      CLOUDY    70  55  60 W16       29.84S
OWATONNA       CLOUDY    68  55  64 W21G28    29.85R
WASECA         PTSUNNY   64  54  68 W21       29.88R
ALBERT LEA     PTSUNNY   66  55  68 NW10G21   29.87R
$$
MNZ078>079-086>088-094>096-232100-
   Southeast Minnesota

CITY           SKY/WX    TMP DP  RH WIND       PRES   REMARKS
ROCHESTER      CLOUDY    69  57  65 NW16      29.83S
RED WING       CLOUDY    72  48  43 NW8G17    29.78S
STANTON        PTSUNNY   69  54  58 W18       29.80S
DODGE CENTER   CLOUDY    66  54  63 W12G25    29.83S
WINONA           N/A     70  54  56 NW9G23    29.79S
AUSTIN         CLOUDY    66  55  68 NW15G25   29.85R
PRESTON        CLOUDY    65  53  67 NW10      29.82S
$$
ABBREVIATIONS USED IN REMARKS
   TC - TEMPERATURES IN CELSIUS
  WCI - WIND CHILL INDEX
   HX - HEAT INDEX
  VSB - VISIBILITY
$$




USA.gov is the U.S. government's official web portal to all federal, state and local government web resources and services.